Wind_Speed
44 44 46 47 48 50 53 55 55 53 54 55 55 54 54 54 54 54 53 52 51 50 49 48 48 48 48 47 46 44 42 41 41 40 39 38 37 35 34 33 31 29 28 27 25 23 22 22 21 21 19 19 19 20 19 18 17 17 17 17 17 15 14
43 45 47 48 48 50 52 54 55 54 55 56 56 56 54 55 55 55 55 53 52 51 50 50 49 49 49 48 47 46 44 43 42 41 40 39 38 37 36 34 32 30 29 28 26 23 22 21 21 20 19 18 18 19 19 19 19 18 17 18 18 17 16
44 44 47 49 50 52 53 54 55 55 56 56 56 56 56 56 56 56 55 55 53 52 51 51 51 50 50 49 49 48 46 45 43 42 40 39 38 38 37 35 33 31 30 29 27 25 24 22 21 21 20 18 17 18 19 20 20 20 19 19 19 18 17
46 46 49 51 52 53 54 55 56 56 56 57 57 57 58 57 57 56 55 54 54 53 53 52 52 51 51 50 50 49 48 46 44 42 40 38 38 37 36 36 34 33 31 30 28 27 26 24 23 23 22 20 18 18 18 20 21 21 20 20 20 20 19
46 48 49 50 50 51 52 54 56 57 57 57 57 57 57 57 56 55 55 54 53 52 51 51 51 51 51 50 50 50 49 47 45 43 40 39 38 37 37 37 35 34 33 31 30 29 27 26 25 25 24 22 21 19 19 19 21 22 22 22 22 21 21
44 46 46 47 48 50 52 54 57 57 57 57 57 57 56 54 54 54 54 53 52 51 50 50 50 50 50 50 50 50 49 48 46 44 42 40 39 39 38 38 37 36 34 33 32 31 29 27 26 26 25 24 23 22 21 20 20 21 22 23 23 23 22
45 45 45 48 49 50 52 54 56 57 56 56 56 55 54 53 53 53 53 53 52 51 51 50 50 49 49 49 50 50 50 49 47 45 44 43 42 41 40 39 38 37 35 34 33 32 31 29 27 26 26 25 24 23 23 23 22 21 22 23 23 23 23
46 47 48 49 49 50 52 53 54 55 54 53 53 53 53 53 53 53 53 53 52 51 51 51 50 49 48 47 48 50 50 50 48 46 45 45 44 43 42 41 39 38 37 36 34 33 32 31 29 28 27 26 26 25 25 24 24 24 24 24 24 24 24
47 49 52 51 50 51 52 53 54 53 53 53 52 52 52 52 53 52 53 52 52 51 51 50 49 48 47 46 46 48 49 49 49 47 46 46 46 45 44 43 41 39 38 37 35 34 33 32 31 29 29 28 27 27 27 26 26 26 26 25 25 25 25
46 49 51 51 51 51 51 51 52 52 53 52 51 51 52 52 53 52 52 52 51 51 51 50 49 48 47 46 45 45 47 48 48 48 47 47 46 46 44 43 42 41 40 38 37 36 34 33 33 31 31 30 30 29 29 29 28 28 28 27 27 26 26
47 49 49 49 49 48 48 48 49 51 52 52 52 51 53 53 53 51 51 50 50 50 50 49 49 48 47 46 45 45 46 47 47 47 48 47 46 46 45 44 43 43 41 40 39 38 36 35 35 34 33 32 32 31 31 31 30 29 29 29 28 28 27
46 47 47 48 47 45 46 47 49 51 52 53 52 52 52 53 52 51 50 49 49 49 49 49 48 48 47 46 46 46 46 46 45 45 46 46 46 46 45 45 44 43 42 41 40 39 38 38 36 35 35 34 33 33 33 32 31 31 31 30 30 30 29
45 45 46 47 47 46 47 47 49 51 52 53 53 52 52 52 52 51 50 49 49 49 49 49 48 48 47 47 47 47 48 47 44 43 43 44 45 46 46 46 45 44 43 41 41 40 40 39 38 37 36 35 35 34 34 34 33 33 32 32 32 32 31
45 43 44 45 46 47 48 48 49 50 51 51 51 50 50 50 50 50 50 49 49 49 49 49 48 48 48 47 47 48 48 47 44 41 40 41 43 45 46 47 46 45 44 42 42 41 41 40 40 39 38 37 36 36 35 35 36 35 34 34 34 34 34
43 42 43 44 46 48 50 51 50 50 49 49 49 48 47 48 48 48 48 48 48 48 48 48 48 48 48 47 47 47 48 47 45 42 41 41 43 45 47 47 47 46 45 44 43 42 41 41 40 40 39 39 38 38 37 38 38 37 36 35 35 35 35
41 41 42 44 47 50 52 51 50 49 49 48 48 48 47 47 47 48 48 48 48 47 47 47 47 47 48 47 47 46 45 46 45 43 42 42 43 44 46 47 47 47 47 46 45 43 42 42 41 41 41 40 40 40 40 40 39 38 37 36 36 36 36
39 41 41 44 47 48 48 48 47 47 48 48 49 48 48 48 47 48 48 48 48 46 45 45 46 46 47 47 46 44 43 43 43 43 43 43 44 44 45 46 47 48 48 47 46 45 44 43 43 42 42 41 41 41 41 41 40 39 38 37 37 37 38
38 41 43 44 44 43 43 45 45 46 47 49 49 48 48 48 48 48 48 48 47 45 43 42 42 44 45 45 44 43 42 41 40 41 42 43 44 45 45 46 47 48 48 48 47 46 45 45 44 44 43 42 43 42 42 42 41 40 39 39 38 39 39
37 39 41 43 42 42 44 44 45 47 47 47 47 47 46 46 46 46 45 45 45 44 43 42 41 42 43 43 43 42 40 39 38 38 39 40 42 44 45 46 47 48 48 48 48 47 46 46 45 45 44 44 44 44 43 42 41 40 40 39 39 38 39
29 31 33 36 38 40 42 42 42 44 44 43 43 43 43 43 42 40 39 40 41 42 43 43 42 43 43 43 42 40 39 38 37 37 37 37 38 41 43 45 46 47 48 48 48 48 47 47 46 46 45 45 45 44 43 43 41 40 40 39 38 37 37
25 26 26 28 31 32 34 35 36 37 38 39 39 39 40 40 39 37 36 36 38 40 41 42 43 44 44 43 41 40 39 38 37 37 36 36 37 39 41 43 44 46 47 47 48 48 48 47 47 46 46 45 45 44 44 43 41 40 39 38 37 36 36
30 28 26 23 24 23 23 24 26 28 31 33 33 34 35 36 36 35 34 34 36 39 40 42 43 44 44 43 42 40 39 38 38 38 37 36 38 39 40 41 41 43 44 46 47 48 48 47 47 47 47 46 45 46 45 43 41 40 39 37 36 35 36
35 34 32 28 25 23 20 20 19 19 22 24 25 26 28 31 33 34 33 32 34 37 39 41 42 43 43 43 42 41 40 39 38 38 38 38 39 40 40 40 39 40 41 43 45 46 48 48 48 47 47 46 46 47 46 44 42 41 40 38 37 36 36
35 35 33 31 30 28 26 24 22 20 19 20 21 20 21 24 27 30 31 31 32 35 37 40 42 42 42 43 42 41 40 40 40 39 39 39 40 40 39 39 39 39 39 40 41 42 44 45 47 47 47 47 47 47 47 46 44 43 41 40 38 37 37
34 32 31 29 27 26 25 23 21 20 20 20 19 17 17 19 22 25 26 27 28 32 35 38 39 40 40 40 41 40 40 41 41 41 40 40 39 39 39 38 37 37 38 39 39 39 39 41 43 45 46 47 47 47 47 46 45 44 43 41 40 39 38
30 29 28 25 23 21 20 19 18 17 16 15 14 14 15 16 18 20 22 23 25 29 31 34 35 35 36 37 38 40 41 41 42 42 41 40 39 38 38 38 38 38 38 39 39 38 38 39 41 42 43 44 45 46 46 46 45 44 43 41 40 39 38
27 26 25 22 19 17 16 14 13 11 11 9 8 8 11 13 14 15 17 19 21 23 26 29 31 32 33 34 35 37 38 39 41 42 42 40 38 37 38 38 39 39 39 39 39 39 39 39 39 41 41 42 44 45 45 45 44 43 43 41 41 40 39
25 23 21 19 16 15 14 11 8 6 5 4 2 3 6 9 11 11 12 14 16 18 20 23 27 30 33 34 34 35 35 35 36 37 39 40 39 39 39 39 40 41 40 40 39 39 39 38 38 39 40 41 42 43 43 43 42 42 41 40 40 39 39
22 21 20 18 16 13 11 8 5 3 4 3 2 1 4 7 8 9 11 12 14 16 17 19 22 25 29 32 33 33 34 34 33 33 34 36 37 39 40 39 40 41 42 41 41 40 39 39 38 39 39 39 40 40 40 40 40 39 38 38 36 36 35
20 19 19 18 16 12 9 7 5 5 4 4 4 3 2 5 7 9 11 13 14 16 17 18 19 20 23 27 30 31 31 31 31 31 31 31 33 35 38 39 40 41 41 41 42 41 40 39 38 38 38 38 38 37 37 37 37 37 36 35 33 32 32
19 18 18 17 15 11 8 7 5 5 5 5 4 4 3 3 5 8 10 12 14 16 17 18 19 19 19 21 25 28 29 30 30 30 29 30 30 32 35 38 38 39 40 41 41 41 40 39 37 36 36 36 35 34 34 34 34 35 35 33 31 30 29
17 17 17 17 15 12 9 7 5 5 6 6 5 5 4 5 6 6 8 11 13 14 16 17 18 19 19 19 20 23 26 29 31 31 29 29 30 30 31 33 34 36 37 39 40 40 39 37 36 34 33 33 32 31 30 29 31 32 33 32 29 27 26
16 16 17 16 14 11 9 8 8 8 9 8 8 6 7 8 8 8 8 10 12 13 14 15 16 18 18 18 18 19 21 25 29 31 31 29 29 29 30 31 32 33 35 36 37 38 37 35 33 31 30 30 29 27 26 27 28 29 29 28 27 26 24
16 15 15 15 13 12 10 10 10 10 10 10 9 9 8 9 10 11 11 11 11 13 13 13 14 16 17 17 17 17 18 20 24 28 30 29 28 29 29 30 31 32 32 33 33 33 32 30 29 28 27 26 25 24 25 26 26 26 26 26 25 25 24
15 13 12 12 12 12 11 10 9 9 9 9 10 11 11 9 11 12 13 12 12 12 13 14 13 12 13 15 16 17 17 18 21 25 27 28 28 28 28 29 30 29 29 28 27 27 25 24 24 24 23 23 23 23 24 24 24 24 24 24 24 23 23
13 11 11 10 10 10 9 7 7 8 9 9 11 13 13 11 12 13 12 12 12 11 12 13 13 12 11 12 14 15 16 17 19 22 24 25 26 26 27 27 27 26 25 24 23 21 20 20 20 21 21 21 22 22 22 22 23 23 23 23 23 22 22
11 10 11 11 10 9 7 6 6 7 8 10 11 13 13 13 13 14 12 9 9 10 10 12 13 13 12 11 11 12 14 16 17 19 21 22 24 25 26 26 26 25 24 24 23 22 20 20 20 21 21 21 20 21 21 20 21 21 22 22 22 21 21
8 8 10 10 9 7 6 6 7 7 9 10 11 13 13 12 13 14 10 7 7 8 8 11 13 14 13 13 13 13 14 16 17 18 20 22 23 24 24 24 24 24 23 23 23 23 22 22 21 21 20 19 19 19 19 20 20 19 18 19 19 18 18
Wind_Direction
193 194 194 195 195 195 196 196 197 197 198 198 199 201 202 202 203 204 206 209 212 214 215 216 217 217 217 218 219 220 220 219 218 219 221 223 225 226 226 227 228 229 229 227 223 220 221 220 219 220 222 221 218 217 220 220 218 216 217 220 222 223 227
193 194 194 195 196 196 198 197 197 197 198 199 199 200 201 202 204 205 206 209 212 215 216 216 217 218 219 220 221 221 222 221 220 221 221 222 224 226 227 228 230 230 230 229 226 223 223 222 221 222 223 223 221 218 218 220 221 221 222 223 224 225 228
194 195 194 195 196 197 198 197 197 198 199 200 200 200 202 203 205 207 208 210 212 214 215 216 217 219 220 221 221 222 223 222 222 221 222 222 223 224 226 227 229 230 231 231 229 227 226 225 225 225 227 228 227 223 220 219 221 222 224 226 228 229 231
194 194 194 196 197 198 198 197 197 199 200 201 201 202 203 205 207 208 210 211 212 212 214 216 218 219 220 220 221 222 223 223 223 223 223 223 223 223 224 225 226 228 230 231 231 231 230 230 228 229 231 231 230 229 225 222 222 222 223 226 229 230 233
195 194 195 196 197 197 198 198 198 199 200 201 202 203 205 206 207 208 210 212 213 214 216 217 218 218 219 220 221 222 223 223 224 224 225 225 224 224 224 224 225 227 229 230 232 232 232 233 231 231 232 231 229 229 227 225 223 223 224 225 228 230 232
194 193 194 195 196 197 198 198 200 200 200 201 202 204 205 205 206 207 209 211 213 216 216 217 218 219 219 221 222 222 223 224 224 225 226 226 226 225 225 226 226 228 230 230 231 232 232 233 233 233 234 232 230 228 227 226 223 223 223 224 226 228 232
191 191 192 194 195 197 198 199 200 200 201 202 203 203 203 204 206 207 209 211 213 215 215 216 218 219 221 222 223 223 224 224 225 226 227 227 227 227 228 228 228 229 230 230 231 232 232 233 233 233 234 234 233 231 230 229 226 224 222 222 224 227 231
189 189 191 194 195 196 197 198 199 200 201 201 201 201 202 203 205 207 209 211 212 214 215 217 218 220 222 223 224 225 225 226 226 226 227 228 228 228 229 230 230 230 230 231 232 232 233 233 233 233 234 234 234 234 232 232 230 229 226 224 224 225 229
187 189 191 194 195 196 197 198 198 199 199 200 201 201 202 203 205 207 209 211 212 213 216 218 220 221 222 223 226 227 226 226 227 228 229 229 230 231 231 230 230 230 231 232 232 233 234 234 234 234 234 235 235 234 233 233 233 232 232 230 228 227 228
185 189 191 193 194 195 196 197 197 198 199 200 201 201 202 204 205 207 209 210 212 214 216 218 219 221 222 223 226 227 227 227 228 228 229 230 232 233 233 232 231 230 231 232 233 234 235 235 235 235 235 235 236 235 235 235 234 234 235 235 235 233 232
185 188 190 192 193 194 194 194 196 197 199 200 200 202 203 205 206 207 209 210 212 214 216 218 218 220 222 224 226 227 227 227 228 229 230 232 233 234 234 234 232 231 231 232 233 235 235 236 236 236 236 236 236 237 237 237 237 237 237 238 238 238 237
187 187 188 190 191 191 192 194 196 198 200 200 201 203 204 205 206 207 209 211 213 215 216 217 218 219 221 224 225 226 227 227 228 230 232 233 234 235 235 234 234 233 232 232 233 235 236 236 236 237 237 238 238 239 240 240 240 240 241 241 241 241 241
187 188 187 188 189 190 192 194 197 199 200 201 202 203 205 206 206 207 209 211 214 216 216 217 219 220 222 224 225 226 227 227 229 231 233 235 236 236 235 235 235 235 234 234 234 234 235 236 237 238 239 239 240 241 242 242 242 243 243 243 244 244 245
185 187 186 187 188 189 192 195 198 199 200 200 201 203 205 206 207 208 209 211 213 215 216 217 219 220 222 224 225 227 228 228 230 233 235 237 237 237 237 236 235 235 236 236 235 235 236 237 238 239 240 241 242 242 243 244 244 244 245 245 245 246 247
184 184 184 186 187 189 193 197 198 199 199 199 200 202 204 205 206 208 209 210 212 214 216 217 218 219 221 222 226 229 230 230 230 233 235 237 237 238 237 236 235 235 236 236 236 237 237 238 239 241 242 243 243 243 243 243 244 245 246 246 246 247 248
182 183 184 186 188 191 194 197 198 198 198 199 200 202 204 205 207 208 209 210 212 214 216 216 218 219 220 223 227 230 231 231 232 233 235 236 237 238 238 237 236 235 235 236 237 238 238 238 240 241 242 244 244 244 243 243 244 246 247 248 248 248 250
179 182 185 188 191 192 194 195 197 197 198 200 203 204 206 208 208 209 209 210 211 212 214 216 217 219 221 223 227 230 230 232 233 234 236 238 238 239 239 238 237 235 235 236 238 239 239 239 240 241 242 244 244 245 245 246 247 248 249 250 250 250 250
177 181 185 190 192 191 192 195 198 199 201 204 205 206 208 210 210 210 210 211 211 212 213 216 218 220 222 225 228 229 231 233 235 236 238 239 239 239 239 238 237 236 235 236 237 239 240 240 241 242 242 243 244 245 247 248 250 251 252 252 252 251 251
176 181 185 188 189 190 193 196 200 202 204 205 206 208 210 211 211 212 213 214 215 215 215 218 220 222 225 228 229 230 233 235 237 238 239 240 240 240 239 238 237 237 236 236 238 238 240 241 242 242 243 243 245 246 248 250 251 252 253 254 254 253 252
164 172 177 180 185 189 194 197 200 202 204 206 208 210 211 212 213 214 215 216 217 217 218 219 220 223 225 228 230 233 236 238 239 240 241 242 242 241 240 239 239 238 237 237 237 237 239 241 242 243 244 244 245 247 249 251 253 253 254 255 255 255 254
135 150 160 170 180 187 193 196 198 199 201 204 207 209 209 212 215 216 217 218 217 217 218 218 219 222 225 228 231 234 237 238 240 242 243 243 242 241 241 241 240 240 238 238 237 238 239 241 242 243 244 245 246 247 250 252 254 255 255 256 256 256 255
108 122 132 147 164 174 184 191 196 200 203 207 209 211 213 215 217 219 220 221 220 219 219 219 220 222 225 228 232 235 237 239 240 241 243 243 242 241 241 241 242 242 240 238 238 239 240 241 242 243 245 246 247 247 249 252 254 255 256 257 257 256 255
94 101 107 116 126 133 144 158 169 182 195 204 208 212 218 221 223 224 225 225 223 222 222 222 224 226 227 229 232 234 236 238 240 241 243 243 242 242 242 242 242 242 241 240 239 239 240 241 242 244 245 247 247 248 249 252 253 254 256 258 257 256 255
90 95 99 104 110 114 122 132 137 145 159 174 181 189 203 213 219 223 225 225 225 225 225 226 228 230 231 232 234 235 236 238 239 240 242 243 243 244 244 244 244 243 242 241 241 242 242 243 243 244 246 247 248 250 251 252 252 253 254 255 255 255 256
87 91 94 99 105 109 113 120 126 133 144 154 160 166 179 193 203 211 216 221 224 225 227 230 232 233 234 235 236 238 238 239 238 238 240 242 244 246 246 247 247 246 244 243 243 245 245 245 245 246 247 248 249 250 252 252 253 253 253 253 253 253 253
83 86 88 92 98 102 108 119 127 131 136 141 150 161 172 181 189 197 204 212 219 223 227 231 234 237 238 238 239 239 239 240 239 239 239 240 242 245 246 247 247 246 245 244 244 245 245 245 246 247 248 249 250 251 252 252 253 254 254 255 255 254 254
82 82 84 87 91 97 105 115 119 120 121 123 138 164 178 184 188 193 199 206 214 221 227 231 234 237 239 239 240 239 240 241 241 241 241 241 241 242 243 245 245 246 245 245 245 245 245 245 246 247 249 250 250 251 252 253 253 254 255 256 257 257 257
85 83 83 83 86 91 97 104 105 99 93 95 132 188 204 206 205 205 208 213 218 223 229 233 236 238 240 241 242 242 242 243 243 243 242 241 240 239 238 240 242 244 245 246 245 246 246 247 247 248 249 250 251 252 253 254 254 255 256 257 257 257 257
85 84 83 83 83 84 87 94 92 58 28 7 349 277 242 239 232 227 226 227 228 230 232 236 238 240 242 243 243 245 245 246 246 245 242 240 239 238 237 237 238 241 243 244 245 245 246 248 248 248 249 250 251 253 254 254 254 255 256 257 257 257 258
82 82 82 83 85 87 86 83 75 53 28 6 358 346 289 260 246 239 238 237 237 237 238 240 240 240 242 243 243 243 245 247 248 248 245 242 239 237 236 236 236 238 240 242 243 245 246 247 247 248 249 250 252 253 254 254 254 255 256 256 256 257 258
78 79 83 86 89 92 85 74 59 38 22 10 357 347 334 293 254 242 242 243 243 243 243 245 245 243 242 242 241 240 240 242 245 247 247 245 240 237 235 234 234 236 238 240 242 243 244 246 247 248 249 251 253 254 254 255 255 255 256 256 256 257 258
66 67 73 79 81 79 72 59 38 18 6 354 340 326 313 298 276 258 252 250 249 248 247 248 250 248 245 243 239 235 234 237 241 243 245 244 242 239 237 236 236 236 237 239 240 242 243 245 246 247 250 252 254 255 256 257 256 255 256 255 255 255 255
56 56 59 63 63 60 55 42 25 16 7 354 342 323 299 287 282 275 266 259 255 253 251 251 252 251 248 245 241 233 229 232 237 240 241 240 238 236 236 237 237 237 237 238 239 240 241 243 244 247 249 252 254 256 257 256 255 255 256 256 254 252 250
49 56 61 62 58 52 46 34 21 13 5 357 350 339 317 296 284 278 272 267 263 257 252 250 253 253 249 243 239 234 227 226 232 236 236 233 230 229 230 231 233 236 238 239 240 240 242 244 247 249 251 253 254 254 253 252 252 253 254 254 253 251 250
43 54 61 63 57 49 41 30 19 9 360 350 343 339 333 316 298 288 278 271 268 263 254 248 248 253 251 242 235 232 227 222 225 230 230 227 224 223 223 225 227 230 235 238 241 243 246 249 251 253 254 253 252 250 249 249 249 249 251 251 251 251 252
38 47 55 58 54 47 36 22 9 358 349 338 331 332 332 324 317 311 296 275 264 262 257 248 241 238 239 237 230 226 222 218 219 223 223 223 222 221 220 220 222 224 229 233 236 240 244 247 250 252 251 249 248 247 246 245 243 242 243 246 248 249 251
28 36 46 49 45 35 19 1 352 343 333 326 323 324 325 324 323 322 313 284 260 253 249 245 238 227 220 220 217 212 210 209 209 210 212 215 218 219 218 217 216 219 225 229 231 234 237 238 241 244 245 243 243 242 240 240 239 239 238 240 243 245 246
24 31 40 42 35 18 353 340 340 335 327 323 320 318 319 320 321 320 312 287 263 247 234 237 238 229 218 211 204 198 199 200 199 200 204 207 212 216 218 219 216 216 219 224 227 230 233 232 233 237 238 233 232 235 235 233 232 232 231 232 233 235 238
Height
1443 1446 1449 1453 1455 1458 1460 1462 1467 1471 1474 1477 1480 1484 1487 1490 1493 1496 1499 1502 1505 1508 1511 1513 1516 1518 1521 1524 1526 1529 1532 1534 1537 1539 1541 1543 1545 1548 1550 1552 1554 1556 1557 1559 1561 1563 1564 1566 1568 1569 1571 1572 1574 1575 1576 1577 1579 1580 1581 1581 1582 1583 1583
1439 1442 1444 1449 1452 1454 1457 1459 1463 1467 1470 1473 1476 1479 1483 1486 1489 1491 1494 1498 1501 1504 1507 1510 1512 1515 1517 1520 1523 1526 1529 1531 1534 1536 1539 1541 1543 1545 1548 1550 1552 1554 1556 1557 1559 1561 1563 1565 1567 1568 1569 1571 1572 1573 1575 1576 1577 1578 1579 1580 1581 1582 1582
1434 1437 1440 1444 1446 1449 1453 1456 1460 1463 1466 1469 1472 1475 1478 1481 1484 1486 1490 1493 1497 1501 1504 1506 1509 1511 1514 1517 1520 1523 1526 1529 1531 1534 1536 1538 1541 1543 1546 1548 1550 1552 1554 1556 1558 1560 1562 1564 1565 1567 1568 1569 1571 1572 1573 1575 1576 1577 1578 1579 1579 1580 1581
1428 1431 1435 1438 1441 1445 1449 1452 1455 1459 1462 1465 1468 1471 1474 1477 1480 1483 1486 1489 1493 1496 1499 1502 1505 1508 1511 1514 1517 1520 1523 1526 1528 1531 1533 1536 1538 1541 1543 1546 1548 1550 1552 1554 1556 1558 1560 1562 1563 1565 1566 1568 1569 1570 1572 1573 1574 1575 1576 1577 1577 1578 1579
1423 1426 1431 1434 1438 1442 1446 1449 1452 1454 1458 1461 1465 1468 1470 1474 1477 1481 1484 1487 1490 1493 1496 1500 1503 1506 1509 1512 1514 1517 1520 1523 1525 1528 1531 1533 1536 1539 1541 1543 1545 1547 1549 1551 1553 1555 1557 1559 1561 1563 1564 1566 1567 1568 1570 1571 1572 1573 1574 1575 1576 1576 1577
1418 1423 1428 1431 1435 1439 1442 1445 1448 1451 1454 1457 1461 1465 1468 1473 1476 1479 1482 1485 1487 1491 1494 1498 1501 1504 1507 1509 1511 1514 1517 1520 1523 1525 1528 1531 1534 1536 1537 1540 1542 1544 1546 1549 1551 1553 1555 1557 1559 1560 1562 1563 1565 1566 1568 1569 1570 1571 1572 1573 1573 1574 1575
1413 1418 1424 1428 1431 1435 1438 1441 1445 1448 1452 1455 1458 1462 1466 1470 1473 1476 1479 1482 1484 1488 1491 1495 1498 1501 1503 1506 1509 1511 1514 1516 1519 1522 1525 1528 1531 1533 1535 1537 1539 1541 1544 1546 1548 1550 1552 1554 1556 1558 1560 1561 1562 1564 1565 1566 1567 1568 1569 1570 1571 1572 1573
1408 1414 1419 1423 1427 1431 1435 1438 1442 1446 1451 1454 1457 1460 1463 1467 1470 1473 1476 1479 1482 1485 1488 1491 1494 1497 1500 1503 1506 1508 1510 1513 1516 1519 1522 1525 1527 1529 1532 1534 1536 1538 1541 1543 1545 1547 1550 1552 1554 1556 1557 1559 1560 1561 1562 1563 1564 1566 1567 1567 1568 1569 1570
1405 1409 1413 1418 1423 1428 1431 1435 1439 1444 1448 1451 1454 1457 1461 1464 1467 1470 1472 1475 1479 1482 1484 1487 1491 1494 1497 1500 1502 1505 1508 1511 1513 1516 1518 1521 1523 1526 1529 1531 1533 1536 1538 1540 1542 1545 1547 1549 1551 1553 1554 1556 1557 1558 1559 1560 1561 1563 1564 1564 1566 1567 1568
1402 1406 1410 1415 1420 1424 1428 1432 1437 1441 1445 1448 1451 1454 1458 1461 1464 1467 1470 1473 1476 1478 1481 1484 1487 1491 1494 1497 1499 1502 1505 1507 1510 1512 1514 1517 1519 1522 1525 1528 1531 1533 1535 1537 1539 1541 1544 1546 1548 1550 1551 1552 1554 1554 1556 1557 1558 1559 1560 1562 1563 1564 1565
1399 1403 1408 1413 1418 1422 1426 1431 1435 1438 1441 1444 1447 1450 1453 1457 1461 1464 1467 1470 1473 1476 1479 1482 1485 1488 1491 1493 1496 1499 1501 1503 1506 1508 1510 1513 1516 1519 1522 1525 1528 1530 1532 1534 1536 1538 1540 1542 1544 1546 1547 1548 1550 1551 1552 1553 1555 1556 1557 1558 1560 1561 1562
1397 1401 1406 1411 1415 1420 1425 1429 1431 1434 1437 1441 1444 1447 1450 1454 1458 1462 1465 1468 1471 1473 1476 1479 1482 1485 1487 1490 1492 1495 1497 1499 1501 1504 1506 1509 1512 1515 1518 1521 1524 1526 1529 1531 1533 1535 1537 1539 1540 1542 1543 1544 1546 1547 1548 1550 1552 1553 1554 1555 1556 1558 1559
1395 1399 1404 1408 1412 1417 1422 1425 1428 1431 1434 1437 1440 1444 1448 1451 1455 1459 1462 1465 1468 1471 1473 1476 1479 1481 1484 1486 1488 1491 1493 1495 1497 1500 1503 1506 1509 1512 1515 1517 1520 1522 1525 1527 1529 1531 1533 1534 1536 1538 1539 1541 1542 1544 1545 1547 1548 1549 1551 1552 1553 1554 1555
1392 1397 1402 1406 1410 1414 1418 1421 1424 1427 1431 1434 1438 1442 1446 1449 1453 1456 1459 1462 1464 1467 1470 1472 1475 1477 1480 1483 1485 1487 1489 1491 1494 1497 1499 1502 1505 1508 1511 1513 1516 1519 1521 1524 1526 1527 1529 1530 1532 1534 1536 1537 1539 1540 1542 1543 1544 1546 1547 1548 1549 1550 1551
1390 1395 1400 1404 1408 1411 1414 1417 1420 1424 1429 1432 1436 1440 1443 1447 1451 1454 1457 1459 1461 1464 1466 1469 1472 1474 1477 1479 1481 1483 1485 1489 1491 1494 1496 1499 1502 1504 1507 1510 1513 1515 1518 1520 1521 1523 1525 1527 1529 1531 1532 1533 1535 1537 1538 1539 1540 1541 1543 1544 1546 1547 1547
1387 1393 1398 1401 1404 1407 1410 1413 1417 1421 1426 1430 1434 1438 1441 1444 1447 1450 1453 1456 1458 1461 1463 1466 1468 1471 1473 1475 1477 1479 1483 1486 1489 1491 1493 1496 1498 1501 1503 1506 1509 1512 1514 1516 1518 1520 1522 1524 1526 1527 1528 1529 1531 1533 1534 1535 1536 1537 1539 1540 1542 1543 1544
1386 1390 1396 1399 1402 1405 1408 1412 1416 1420 1424 1428 1431 1434 1438 1441 1444 1447 1450 1453 1455 1458 1461 1463 1466 1468 1470 1472 1474 1478 1481 1483 1485 1488 1489 1492 1494 1497 1500 1502 1505 1508 1510 1512 1514 1516 1518 1520 1521 1522 1524 1525 1527 1528 1529 1530 1531 1533 1535 1536 1538 1539 1541
1384 1388 1392 1397 1401 1404 1408 1411 1415 1418 1421 1425 1428 1432 1435 1439 1442 1445 1448 1450 1454 1457 1460 1462 1464 1466 1468 1471 1473 1476 1478 1480 1482 1484 1486 1488 1491 1493 1496 1499 1502 1504 1506 1508 1510 1512 1514 1515 1517 1518 1520 1522 1523 1524 1525 1526 1528 1529 1531 1533 1534 1536 1537
1382 1386 1390 1394 1399 1403 1407 1410 1413 1416 1419 1423 1426 1430 1433 1436 1439 1442 1445 1449 1452 1456 1459 1461 1462 1464 1466 1469 1471 1473 1474 1477 1479 1481 1483 1485 1488 1491 1494 1496 1498 1500 1502 1504 1506 1509 1510 1511 1513 1514 1516 1517 1518 1519 1521 1522 1524 1526 1527 1529 1530 1533 1534
1384 1387 1391 1395 1399 1403 1407 1410 1413 1416 1419 1423 1426 1429 1433 1436 1438 1441 1444 1448 1451 1453 1456 1458 1460 1461 1463 1465 1467 1469 1471 1473 1475 1477 1480 1483 1485 1488 1490 1492 1494 1496 1498 1501 1503 1505 1506 1507 1509 1510 1512 1513 1514 1516 1517 1518 1520 1522 1524 1525 1527 1529 1531
1387 1390 1394 1398 1402 1406 1409 1411 1414 1417 1420 1424 1428 1431 1434 1436 1438 1441 1444 1446 1449 1451 1453 1455 1457 1458 1460 1462 1464 1466 1468 1470 1472 1475 1477 1480 1482 1484 1486 1488 1490 1492 1495 1497 1499 1500 1502 1503 1505 1506 1507 1509 1511 1512 1513 1514 1516 1518 1520 1522 1524 1526 1528
1391 1394 1397 1402 1405 1408 1412 1414 1417 1420 1423 1426 1429 1432 1434 1436 1438 1440 1442 1444 1447 1449 1451 1453 1454 1456 1457 1458 1460 1463 1465 1467 1470 1472 1475 1477 1479 1480 1482 1484 1486 1488 1491 1493 1495 1497 1499 1500 1501 1502 1504 1505 1507 1508 1509 1510 1513 1514 1516 1518 1521 1523 1526
1394 1397 1400 1404 1407 1410 1413 1416 1419 1422 1425 1427 1430 1432 1434 1435 1437 1439 1441 1443 1445 1446 1448 1450 1451 1453 1454 1455 1457 1460 1462 1465 1467 1469 1472 1474 1475 1476 1478 1480 1482 1485 1487 1490 1491 1493 1494 1496 1497 1499 1500 1502 1503 1504 1505 1507 1509 1511 1513 1516 1518 1521 1522
1397 1399 1402 1405 1408 1411 1414 1417 1420 1423 1426 1427 1429 1432 1433 1435 1436 1438 1439 1441 1442 1444 1446 1447 1448 1450 1451 1452 1455 1457 1459 1462 1464 1466 1468 1470 1471 1473 1475 1477 1479 1481 1484 1486 1487 1489 1490 1492 1494 1496 1497 1498 1500 1500 1502 1503 1506 1508 1511 1513 1516 1518 1519
1399 1402 1404 1407 1409 1412 1415 1418 1421 1423 1425 1427 1429 1431 1432 1434 1435 1437 1438 1439 1441 1442 1443 1443 1445 1447 1449 1450 1452 1454 1456 1458 1460 1462 1465 1466 1468 1470 1472 1474 1476 1478 1480 1482 1483 1485 1487 1489 1491 1492 1493 1495 1496 1498 1499 1501 1503 1505 1507 1509 1512 1513 1515
1401 1404 1405 1408 1411 1413 1415 1418 1421 1423 1424 1426 1428 1430 1431 1432 1433 1435 1436 1438 1439 1440 1441 1442 1443 1445 1447 1448 1449 1451 1452 1454 1455 1457 1460 1463 1465 1467 1469 1471 1473 1475 1477 1478 1480 1482 1484 1486 1487 1488 1489 1491 1493 1494 1496 1498 1500 1502 1503 1505 1507 1509 1510
1403 1405 1407 1410 1412 1414 1416 1418 1420 1422 1424 1426 1427 1429 1430 1431 1432 1433 1435 1436 1437 1439 1439 1441 1442 1443 1444 1445 1447 1448 1449 1451 1452 1453 1455 1458 1462 1464 1466 1468 1470 1471 1473 1475 1477 1479 1480 1482 1483 1484 1485 1487 1489 1490 1492 1494 1496 1498 1500 1502 1503 1504 1506
1406 1407 1409 1411 1413 1415 1417 1418 1420 1421 1423 1425 1427 1428 1429 1430 1431 1432 1433 1434 1435 1436 1437 1438 1440 1440 1442 1443 1444 1445 1446 1448 1449 1451 1453 1455 1458 1460 1462 1464 1467 1468 1470 1472 1474 1475 1477 1478 1480 1481 1482 1484 1486 1487 1488 1491 1493 1494 1496 1497 1499 1500 1502
1408 1410 1412 1413 1415 1417 1418 1419 1421 1422 1424 1426 1427 1427 1428 1429 1430 1431 1432 1433 1434 1434 1435 1436 1437 1438 1439 1440 1441 1442 1444 1445 1446 1448 1450 1452 1454 1456 1459 1461 1464 1465 1467 1469 1471 1472 1473 1475 1477 1478 1479 1481 1482 1484 1486 1488 1490 1491 1492 1494 1495 1497 1498
1410 1412 1413 1415 1417 1419 1420 1422 1423 1424 1425 1426 1427 1427 1428 1428 1429 1429 1430 1431 1431 1432 1433 1434 1434 1436 1437 1437 1439 1440 1441 1443 1444 1446 1447 1449 1451 1453 1455 1458 1460 1462 1464 1466 1467 1469 1470 1471 1473 1475 1476 1478 1479 1481 1483 1485 1486 1488 1488 1490 1491 1493 1494
1414 1414 1414 1416 1418 1419 1420 1422 1422 1424 1425 1425 1426 1427 1427 1427 1428 1428 1429 1429 1429 1430 1431 1432 1432 1433 1434 1435 1436 1438 1439 1441 1442 1444 1445 1446 1448 1450 1452 1455 1457 1459 1461 1463 1464 1465 1467 1469 1471 1472 1473 1475 1476 1478 1480 1482 1484 1484 1485 1486 1488 1489 1490
1413 1413 1414 1415 1416 1418 1419 1420 1421 1422 1424 1424 1426 1426 1426 1427 1427 1428 1428 1428 1428 1429 1429 1429 1430 1431 1432 1433 1434 1435 1437 1438 1440 1441 1443 1444 1446 1448 1450 1452 1454 1456 1458 1460 1461 1462 1464 1466 1468 1469 1471 1472 1473 1476 1478 1480 1480 1480 1481 1482 1484 1486 1487
1413 1413 1413 1414 1415 1417 1419 1420 1421 1423 1424 1425 1425 1426 1426 1427 1427 1427 1428 1428 1427 1428 1428 1428 1428 1429 1430 1431 1432 1433 1434 1436 1437 1439 1441 1442 1444 1447 1449 1450 1452 1454 1455 1457 1458 1460 1462 1464 1465 1467 1468 1470 1471 1473 1475 1476 1476 1477 1477 1479 1481 1482 1484
1417 1416 1417 1417 1418 1419 1420 1421 1423 1424 1424 1425 1426 1426 1426 1426 1426 1427 1427 1427 1427 1427 1427 1427 1427 1427 1427 1429 1430 1431 1432 1433 1435 1437 1438 1440 1443 1445 1447 1448 1450 1452 1453 1455 1457 1458 1460 1462 1463 1465 1466 1467 1469 1471 1472 1472 1473 1474 1475 1477 1478 1479 1481
1421 1421 1421 1420 1420 1421 1422 1423 1425 1425 1426 1426 1426 1427 1427 1426 1426 1426 1425 1425 1426 1425 1426 1426 1426 1425 1426 1427 1428 1429 1430 1431 1433 1434 1436 1438 1440 1442 1444 1446 1448 1450 1452 1454 1456 1457 1459 1460 1461 1462 1463 1465 1466 1468 1468 1469 1471 1472 1473 1474 1475 1477 1478
1424 1424 1422 1421 1421 1422 1424 1425 1426 1426 1426 1427 1427 1427 1427 1427 1426 1425 1424 1424 1424 1424 1425 1425 1425 1425 1425 1425 1426 1427 1428 1429 1431 1432 1434 1436 1438 1440 1442 1444 1446 1448 1450 1452 1454 1456 1457 1458 1459 1460 1461 1462 1464 1465 1466 1467 1468 1469 1471 1472 1473 1474 1475
1425 1424 1422 1421 1422 1423 1426 1426 1426 1426 1426 1427 1427 1428 1427 1427 1426 1425 1424 1423 1423 1424 1424 1424 1424 1425 1425 1425 1426 1427 1427 1428 1429 1431 1433 1435 1437 1438 1440 1442 1444 1447 1448 1450 1452 1454 1455 1456 1457 1458 1459 1460 1461 1462 1464 1465 1466 1467 1468 1470 1471 1472 1472
1426 1424 1423 1422 1423 1426 1428 1427 1427 1426 1427 1427 1428 1428 1428 1427 1426 1425 1424 1423 1423 1423 1423 1424 1424 1424 1425 1426 1427 1427 1427 1428 1429 1430 1432 1433 1435 1437 1438 1440 1442 1445 1446 1448 1450 1451 1453 1454 1454 1455 1457 1458 1459 1460 1462 1463 1464 1465 1466 1467 1468 1469 1470